カタログに戻る

STARLINK-6059

運用中通信VLEO
NORAD 56814·PAYLOAD·🇺🇸 United States

打ち上げ May 31, 2023 から Vandenberg Space Force Base

Loading…

次のパス (今後24時間)

TLE

最新Source: CelesTrak SupGP

元期: Sep 14, 2026, 22:24 UTC

1 56814C 23078AZ  26257.93381944 -.00001879  00000+0 -15740-3 0  2570
2 56814  70.0011 227.1741 0003357 267.2684 332.6760 14.98340959    12

AllMySatでSTARLINK-6059をリアルタイム追跡

Download on the App Store